FW4333 Weather Reports


time (UTC)temp
C
wind
direction
speed
KPH
gust
KPH
rain 1hr
cm
rain 24hr
cm
rain mn
cm
humidity
%
barometer
mb
20190916001555 16 329 9.7 20.9 0.00 0.00 0.00 49 1010.1
20190916000551 16 315 4.8 8.0 0.00 0.00 0.00 50 1010.1
20190915235548 16 318 11.3 24.1 0.00 0.00 0.00 49 1010.0
20190915234545 16 303 9.7 17.7 0.00 0.00 0.00 49 1010.0
20190915233541 16 334 9.7 19.3 0.00 0.00 0.00 48 1010.1
20190915232537 16 299 11.3 22.5 0.00 0.00 0.00 48 1010.0
20190915231534 16 304 9.7 24.1 0.00 0.00 0.00 48 1010.1
20190915230530 16 315 9.7 19.3 0.00 0.00 0.00 48 1010.2
20190915225527 16 320 8.0 14.5 0.00 0.00 0.00 48 1010.1
20190915224523 16 341 8.0 14.5 0.00 0.00 0.00 49 1010.1
20190915223520 16 343 6.4 16.1 0.00 0.00 0.00 50 1010.1
20190915222516 16 326 9.7 17.7 0.00 0.00 0.00 54 1010.1
20190915213559 16 303 6.4 17.7 0.00 0.00 0.00 59 1010.1
20190915212555 16 316 4.8 17.7 0.00 0.00 0.00 60 1010.0
20190915211552 16 306 4.8 14.5 0.00 0.00 0.00 61 1010.1
20190915210548 16 351 4.8 9.7 0.00 0.00 0.00 62 1010.3
20190915205545 16 298 3.2 9.7 0.00 0.00 0.00 64 1010.3
20190915204541 16 358 4.8 12.9 0.00 0.00 0.00 63 1010.6
20190915203537 16 310 4.8 12.9 0.00 0.00 0.00 63 1010.6
20190915202534 16 311 4.8 11.3 0.00 0.00 0.00 63 1010.6
20190915201530 17 8 4.8 11.3 0.00 0.00 0.00 62 1010.7
20190915200526 17 319 3.2 11.3 0.00 0.00 0.00 61 1010.7
20190915195523 17 255 3.2 12.9 0.00 0.00 0.00 61 1010.8
20190915194519 17 111 4.8 9.7 0.00 0.00 0.00 61 1010.9
20190915193516 17 226 3.2 11.3 0.00 0.00 0.00 61 1010.9
20190915185059 16 122 3.2 9.7 0.00 0.00 0.00 60 1010.8
20190915184056 16 265 4.8 14.5 0.00 0.00 0.00 60 1010.8
20190915183052 16 127 4.8 11.3 0.00 0.00 0.00 60 1010.8
20190915182049 16 230 3.2 11.3 0.00 0.00 0.00 60 1010.9
20190915181045 16 242 3.2 9.7 0.00 0.00 0.00 59 1011.0
20190915180042 16 194 3.2 9.7 0.00 0.00 0.00 59 1010.9
20190915175038 17 262 4.8 14.5 0.00 0.00 0.00 58 1010.9
20190915174039 17 313 4.8 11.3 0.00 0.00 0.00 58 1010.9
20190915173029 17 189 3.2 12.9 0.00 0.00 0.00 58 1011.1
20190915172026 17 241 1.6 11.3 0.00 0.00 0.00 57 1011.2
20190915171022 17 267 4.8 9.7 0.00 0.00 0.00 55 1011.2
20190915170020 17 234 3.2 8.0 0.00 0.00 0.00 54 1011.3
20190915165016 18 222 1.6 4.8 0.00 0.00 0.00 53 1011.3
20190915155557 19 253 3.2 11.3 0.00 0.00 0.00 49 1012.1
20190915154554 19 129 4.8 14.5 0.00 0.00 0.00 48 1012.2
20190915153550 19 316 3.2 12.9 0.00 0.00 0.00 46 1012.3
20190915152547 20 218 3.2 9.7 0.00 0.00 0.00 45 1012.6
20190915151543 20 277 4.8 14.5 0.00 0.00 0.00 44 1012.7
20190915150539 20 352 4.8 19.3 0.00 0.00 0.00 43 1012.9
20190915145536 20 298 4.8 12.9 0.00 0.00 0.00 42 1012.9
20190915144532 20 242 6.4 17.7 0.00 0.00 0.00 42 1012.9
20190915143528 20 324 4.8 9.7 0.00 0.00 0.00 41 1013.1
20190915142525 20 95 3.2 9.7 0.00 0.00 0.00 40 1013.2
20190915141521 20 269 4.8 12.9 0.00 0.00 0.00 40 1013.3
20190915140517 20 225 6.4 12.9 0.00 0.00 0.00 40 1013.4
20190915131558 20 170 4.8 14.5 0.00 0.00 0.00 35 1014.1
20190915130553 20 263 4.8 17.7 0.00 0.00 0.00 34 1014.1
20190915125549 20 261 8.0 22.5 0.00 0.00 0.00 34 1014.1
20190915124545 20 233 8.0 20.9 0.00 0.00 0.00 33 1014.3
20190915123541 20 278 6.4 17.7 0.00 0.00 0.00 33 1014.4
20190915122538 20 320 6.4 17.7 0.00 0.00 0.00 36 1014.6
20190915121534 20 233 6.4 19.3 0.00 0.00 0.00 34 1015.0
20190915120531 20 270 9.7 16.1 0.00 0.00 0.00 34 1015.5
20190915115527 20 242 9.7 25.7 0.00 0.00 0.00 33 1015.7
20190915114523 20 324 6.4 16.1 0.00 0.00 0.00 34 1015.9
20190915113520 20 309 8.0 24.1 0.00 0.00 0.00 31 1016.0
20190915112516 20 287 8.0 19.3 0.00 0.00 0.00 31 1016.2
20190915103056 19 225 8.0 24.1 0.00 0.00 0.00 39 1017.3
20190915102052 18 196 9.7 24.1 0.00 0.00 0.00 41 1017.5
20190915101049 18 314 8.0 14.5 0.00 0.00 0.00 42 1017.8
20190915100046 18 264 9.7 16.1 0.00 0.00 0.00 42 1018.0
20190915095042 17 286 9.7 19.3 0.00 0.00 0.00 43 1018.3
20190915094039 17 310 8.0 17.7 0.00 0.00 0.00 43 1018.3
20190915093035 17 279 8.0 16.1 0.00 0.00 0.00 42 1018.5
20190915092032 17 186 6.4 16.1 0.00 0.00 0.00 44 1018.6
20190915091028 17 264 8.0 16.1 0.00 0.00 0.00 45 1018.7
20190915090025 17 278 6.4 11.3 0.00 0.00 0.00 46 1018.8
20190915085021 16 293 6.4 20.9 0.00 0.00 0.00 46 1018.9
20190915084017 16 238 4.8 14.5 0.00 0.00 0.00 49 1019.2
20190915075600 15 296 6.4 16.1 0.00 0.00 0.00 54 1019.8
20190915074556 15 208 8.0 14.5 0.00 0.00 0.00 56 1020.1
20190915073553 14 252 8.0 24.1 0.00 0.00 0.00 60 1020.2
20190915072549 13 278 4.8 12.9 0.00 0.00 0.00 61 1020.2
20190915071545 13 216 4.8 16.1 0.00 0.00 0.00 65 1020.2
20190915070542 12 215 4.8 11.3 0.00 0.00 0.00 67 1020.3
20190915065538 12 200 4.8 11.3 0.00 0.00 0.00 70 1020.4
20190915064534 11 255 4.8 9.7 0.00 0.00 0.00 75 1020.4
20190915063530 10 170 3.2 12.9 0.00 0.00 0.00 79 1020.5
20190915062527 10 90 1.6 4.8 0.00 0.00 0.00 81 1020.6
20190915061523 10 90 1.6 4.8 0.00 0.00 0.00 83 1020.6
20190915060520 8 90 3.2 4.8 0.00 0.00 0.00 86 1020.7
20190915055516 8 90 1.6 4.8 0.00 0.00 0.00 87 1020.9
20190915050057 6 90 3.2 6.4 0.00 0.00 0.00 91 1021.4
20190915045054 6 90 1.6 6.4 0.00 0.00 0.00 92 1021.5
20190915044050 6 90 1.6 4.8 0.00 0.00 0.00 92 1021.6
20190915043046 6 90 3.2 8.0 0.00 0.00 0.00 92 1021.8
20190915042039 6 90 1.6 4.8 0.00 0.00 0.00 92 1021.9
20190915041035 6 90 1.6 4.8 0.00 0.00 0.00 91 1022.0
20190915040030 6 90 1.6 4.8 0.00 0.00 0.00 91 1022.0
20190915035027 6 90 1.6 4.8 0.00 0.00 0.00 91 1022.0
20190915034024 6 90 1.6 4.8 0.00 0.00 0.00 91 1022.1
20190915033020 6 90 1.6 4.8 0.00 0.00 0.00 90 1022.3
20190915032016 6 90 1.6 4.8 0.00 0.00 0.00 90 1022.4
20190915022558 6 90 1.6 4.8 0.00 0.00 0.00 89 1022.9
20190915021554 6 90 0.0 4.8 0.00 0.00 0.00 89 1022.9
20190915020551 6 90 1.6 3.2 0.00 0.00 0.00 89 1023.0
20190915015547 7 94 1.6 4.8 0.00 0.00 0.00 89 1023.2
20190915014543 7 90 1.6 4.8 0.00 0.00 0.00 89 1023.3
20190915013540 7 90 1.6 6.4 0.00 0.00 0.00 89 1023.5
20190915012536 7 90 1.6 4.8 0.00 0.00 0.00 88 1023.6
20190915011533 7 90 1.6 3.2 0.00 0.00 0.00 88 1023.7
20190915010529 7 90 1.6 4.8 0.00 0.00 0.00 88 1023.8
20190915005522 7 90 0.0 4.8 0.00 0.00 0.00 88 1023.7
20190915004519 7 90 1.6 4.8 0.00 0.00 0.00 87 1023.9
20190915003516 7 90 0.0 4.8 0.00 0.00 0.00 87 1024.1